Miscellaneous Local Product
Issued by NWS North Platte, NE

Home | Current Version | Previous Version | Graphics & Text | Print | Product List | Glossary On
Versions: 1 2 3 4 5 6 7 8 9 10 11 12 13 14 15 16 17 18 19 20 21 22 23 24 25 26 27 28 29 30 31 32 33 34 35 36 37 38 39 40 41 42 43 44 45 46 47 48 49 50
000
AXUS43 KLBF 210010
MISLBF


WESTERN AND NORTH CENTRAL NEBRASKA HOURLY WEATHER ROUNDUP
NATIONAL WEATHER SERVICE NORTH PLATTE NE
600 PM CST MON NOV 20 2017

NOTE: "FAIR" INDICATES FEW OR NO CLOUDS BELOW 12,000 FEET WITH NO
SIGNIFICANT WEATHER AND/OR OBSTRUCTIONS TO VISIBILITY.

NOTE: STATIONS NOT REPORTING VARIABLES SUCH AS SKY/WEATHER OR
PRESSURE ARE PROVIDED BY RAWS AND APRS NETWORKS AND ARE NOT UNDER
NATIONAL WEATHER SERVICE QUALITY CONTROL.

...OBSERVATIONS IN AND NEAR THE EASTERN PANHANDLE OF NEBRASKA...

CITY           SKY/WX    TMP DP  RH WIND       PRES   REMARKS
PINE RIDGE     CLEAR     52  19  27 W10       29.71R
GORDON         FAIR      48  19  32 W9        29.72R
CHADRON        CLOUDY    48  23  37 W5        29.75R
ALLIANCE       CLOUDY    53  23  31 W18G29    29.75R
SIDNEY         CLOUDY    53  17  24 NW13      29.82R
$$

...OBSERVATIONS IN NORTHERN NEBRASKA AND FAR SOUTHERN SOUTH DAKOTA...

CITY           SKY/WX    TMP DP  RH WIND       PRES   REMARKS
WINNER         FAIR      51  20  29 NW7       29.65R
VALENTINE      CLOUDY    48  21  34 W8        29.68R
THEDFORD       CLOUDY    49  20  31 W7        29.70R
AINSWORTH      CLEAR     51  21  30 NW8       29.67R
O`NEILL        CLEAR     49  23  35 CALM      29.63R
ORD            CLOUDY    51  20  29 NW3       29.63R
BROKEN BOW     CLOUDY    52  22  30 NW9       29.66R
VALENTINE NWR    N/A     51  16  24 N6G14       N/A
HALSEY           N/A     56  16  20 NW6         N/A
BUTTE            N/A     54  24  31 NW8         N/A
CHAMBERS         N/A     47  17  30 W7          N/A
EWING            N/A     47  25  42 CALM        N/A
$$

...OBSERVATIONS IN SOUTHWEST NEBRASKA AND FAR NORTHEAST COLORADO...

CITY           SKY/WX    TMP DP  RH WIND       PRES   REMARKS
HOLYOKE        FAIR      59  19  21 N13       29.79R
IMPERIAL       CLOUDY    59  17  19 NW9       29.76R
OGALLALA       CLOUDY    58  20  23 NW13      29.75R
NORTH PLATTE   CLOUDY    51  23  33 NW6       29.71R
MCCOOK         CLOUDY    58  21  24 NW9       29.71R
LEXINGTON      CLOUDY    51  25  36 NW8       29.69R
STAPLETON        N/A     52  22  30 CALM        N/A
GOTHENBURG       N/A     58  18  21 NW6         N/A
CALLAWAY         N/A     48  22  35 W7          N/A
$$

...OBSERVATIONS IN CENTRAL LINCOLN COUNTY AREA...

CITY           SKY/WX    TMP DP  RH WIND       PRES   REMARKS
N.P. AIRPORT   CLOUDY    51  23  33 NW6       29.71R
N.P. DOWNTOWN    N/A     55  23  29 CALM        N/A
N.P. SOUTHEAST   N/A     57  23  26 NW3         N/A
N.P. HILLCREST   N/A     56  22  26 NW12        N/A
$$

...SOME OBSERVATIONS FROM AROUND THE REGION...

CITY           SKY/WX    TMP DP  RH WIND       PRES   REMARKS
DENVER         CLOUDY    59   8  13 SE7       29.84R
LIMON          CLOUDY    52   7  16 NE13      29.83R
ASPEN          CLOUDY    34  19  54 S3        30.13S
LARAMIE        CLOUDY    43  10  26 SW16G28   29.94S
CASPER         CLOUDY    44  20  38 SW17      29.83F
CHEYENNE       CLOUDY    51  11  20 CALM      29.87R
SCOTTSBLUFF    CLOUDY    54  16  22 NW13      29.79R
GRAND ISLAND   CLOUDY    49  31  49 W9        29.66R
OMAHA          PTCLDY    50  28  42 S9        29.64R
SIOUX FALLS    MOCLDY    46  27  47 SW6       29.56R
PIERRE         PTCLDY    49  25  39 W14       29.62R
RAPID CITY     CLEAR     50  22  33 N18       29.69R
BISMARCK       CLEAR     42  29  59 NW17G25   29.65R
KANSAS CITY    CLOUDY    57  28  33 SW21G29   29.74S
HILL CITY      CLOUDY    59  16  18 W6        29.70R
WICHITA        CLOUDY    58  28  32 S20G28    29.78R
DODGE CITY     CLOUDY    49  17  28 S9        29.76R
OKLAHOMA CITY  MOCLDY    54  28  36 S12       29.89R
DALLAS         PTCLDY    60  31  33 S12       29.97F
AMARILLO       CLOUDY    52  22  30 SE10      29.84R
$$




USA.gov is the U.S. government's official web portal to all federal, state and local government web resources and services.